Location: Mount Cross
(36.6390°N, 79.4878°W)
Time: 17:32:41
(UTC+00:00)

Courier 1B Rocket - Pass Details

Date: 28 March 2023
Orbit: 920 x 1202 km, 28.2° (Epoch: 08 June)

Event Time Altitude Azimuth Distance (km) Brightness Sun altitude
Rises 21:59:38 0° 210° (SSW) 4,036 8.8 18.5°
Reaches altitude 10° 22:03:43 10° 191° (S) 3,035 7.9 17.7°
Maximum altitude 22:08:04 16° 155° (SSE) 2,530 7.1 16.9°
Drops below altitude 10° 22:12:17 10° 118° (ESE) 2,926 7.1 16.0°
Sets 22:16:06 0° 99° (E) 3,824 7.5 15.3°
